Regional Weather Roundup
Issued by NWS Sioux Falls, SD

Home | Current Version | Previous Version | Graphics & Text | Print | Product List | Glossary On
Versions: 1 2 3 4 5 6 7 8 9 10 11 12 13 14 15 16 17 18 19 20 21 22 23 24 25 26 27 28 29 30 31 32 33 34 35 36 37 38 39 40 41 42 43 44 45 46 47 48 49 50
000
ASUS43 KFSD 241002
RWRFSD

WEATHER ROUNDUP FOR SE SOUTH DAKOTA/SW MINNESOTA/NW IOWA
NATIONAL WEATHER SERVICE SIOUX FALLS SD
500 AM CDT SUN MAY 24 2015

NOTE: "FAIR" INDICATES FEW OR NO CLOUDS BELOW 12,000 FEET WITH NO
SIGNIFICANT WEATHER AND OR OBSTRUCTIONS TO VISIBILITY.


SDZ038>040-050-052>070-241100-
SOUTHEAST SOUTH DAKOTA

CITY           SKY/WX    TMP DP  RH WIND       PRES   REMARKS
BROOKINGS      CLOUDY    57  55  94 E7        30.02F
CHAMBERLAIN    CLOUDY    55  55 100 NE6       29.97F FOG
HURON          CLOUDY    55  53  93 NE5       29.99F FOG
MADISON        CLOUDY    55  55 100 E7        30.01F
MITCHELL       CLOUDY    58  56  93 E5        29.97F FOG
SIOUX FALLS    DRIZZLE   58  57  97 E8        29.99F
WINNER         CLOUDY    56  53  90 E10       29.96F FOG
YANKTON        CLOUDY    57  55  94 E13       29.93F
$$

MNZ071-072-080-081-089-090-097-098-241100-
SOUTHWEST MINNESOTA

CITY           SKY/WX    TMP DP  RH WIND       PRES   REMARKS
FAIRMONT       CLOUDY    61  52  72 S12       30.05F
JACKSON        DRIZZLE   59  55  88 E6        30.04F
LUVERNE        CLOUDY    59  55  88 E6        30.01F
MARSHALL       CLOUDY    57  52  82 CALM      30.02F
MONTEVIDEO     LGT RAIN  57  52  82 SE3       30.05F
REDWOOD FALLS  CLOUDY    59  52  77 E3        30.04F
TRACY          CLOUDY    60  57  90 SE3       30.04F
WINDOM         LGT RAIN  59  55  88 CALM      30.04F
WORTHINGTON    CLOUDY    57  54  88 E9        30.02F
$$

IAZ001>003-012>014-020>022-031-032-NEZ013-014-SDZ071-241100-
NORTHWEST IOWA

CITY           SKY/WX    TMP DP  RH WIND       PRES   REMARKS
DENISON        CLOUDY    59  59 100 E8        29.94F FOG
ESTHERVILLE    LGT RAIN  57  56  96 SE10      30.03F
SIOUX CITY     CLOUDY    61  58  90 E7        29.94F
SPENCER        CLOUDY    59  57  93 E10       30.01F
$$

ABBREVIATIONS USED IN REMARKS
   TC - TEMPERATURE IN CELSIUS
  WCI - WIND CHILL INDEX
   HX - HEAT INDEX
  VSB - VISIBILITY



USA.gov is the U.S. government's official web portal to all federal, state and local government web resources and services.